Location: Aydie
(43.5695°N, 0.1043°W)
Time: 08:42:15
(UTC+00:00)

Cosmos 2082 Rocket - Pass Details

Date: 17 November 2025
Orbit: 834 x 851 km, 71.0° (Epoch: 13 December)

Event Time Altitude Azimuth Distance (km) Brightness Sun altitude
Rises 19:31:15 0° 323° (NW) 3,388 5.9 -32.1°
Reaches altitude 10° 19:34:06 10° 310° (NW) 2,450 5.2 -32.6°
Maximum altitude 19:38:30 24° 258° (WSW) 1,658 4.2 -33.4°
Drops below altitude 10° 19:42:54 10° 206° (SSW) 2,440 4.8 -34.2°
Sets 19:45:44 0° 193° (SSW) 3,372 5.4 -34.7°
